EW5738 Weather Reports


Display with metric or nautical units.
time (UTC)temp
F
wind
direction
speed
MPH
gust
MPH
rain 1hr
in
rain 24hr
in
rain mn
in
humidity
%
barometer
mb
20260506073041 71 135 2.0 5.0 0.00 0.02 0.02 82 1017.0
20260506071544 71 191 2.0 5.0 0.00 0.02 0.02 81 1016.8
20260506061537 74 147 6.0 11.0 0.00 0.02 0.02 78 1016.3
20260506044533 75 126 3.0 8.0 0.00 0.02 0.02 76 1016.4
20260506043030 74 147 3.0 9.0 0.00 0.02 0.02 77 1016.4
20260506041532 75 223 4.0 9.0 0.00 0.02 0.02 77 1016.5
20260506040028 75 117 4.0 9.0 0.00 0.02 0.02 78 1016.5
20260506034527 75 122 4.0 12.0 0.00 0.02 0.02 78 1016.6
20260506033025 75 178 6.0 13.0 0.00 0.02 0.02 76 1016.8
20260506031525 75 122 7.0 15.0 0.00 0.02 0.02 76 1016.8
20260506030030 76 160 3.0 7.0 0.00 0.02 0.02 74 1016.7
20260506024535 75 182 4.0 8.0 0.00 0.02 0.02 74 1016.9
20260506023019 76 209 4.0 10.0 0.00 0.02 0.02 74 1017.0
20260506021517 77 131 5.0 13.0 0.00 0.02 0.02 72 1017.2
20260506020015 79 105 3.0 13.0 0.00 0.02 0.02 71 1017.3
20260506014518 76 130 2.0 6.0 0.00 0.02 0.02 75 1017.6
20260506013014 77 155 5.0 9.0 0.00 0.02 0.02 74 1017.7
20260506011510 77 178 2.0 6.0 0.00 0.02 0.02 75 1017.9
20260506010008 77 124 3.0 11.0 0.00 0.02 0.02 76 1018.0
20260506004503 76 203 2.0 8.0 0.00 0.02 0.02 78 1018.3
20260506003100 75 178 4.0 10.0 0.00 0.02 0.02 79 1018.5
20260506001607 74 158 3.0 7.0 0.00 0.02 0.02 81 1018.5
20260506000053 73 183 3.0 11.0 0.00 0.02 0.02 83 1018.6
20260505234653 73 136 4.0 12.0 0.00 0.02 0.02 84 1018.7
20260505233048 72 142 2.0 11.0 0.00 0.02 0.02 85 1018.7
20260505231552 71 189 4.0 10.0 0.00 0.02 0.02 88 1018.8
20260505230052 69 178 5.0 10.0 0.00 0.02 0.02 92 1018.9
20260505224536 68 178 6.0 10.0 0.00 0.02 0.02 94 1018.9
20260505223035 68 176 4.0 10.0 0.00 0.02 0.02 94 1019.0
20260505221532 67 206 1.0 6.0 0.00 0.02 0.02 94 1018.8
20260505220033 67 201 2.0 6.0 0.00 0.02 0.02 94 1018.7
20260505214530 67 269 1.0 4.0 0.00 0.02 0.02 94 1018.7
20260505213027 66 213 2.0 8.0 0.00 0.02 0.02 94 1018.6
20260505211526 66 269 2.0 6.0 0.00 0.02 0.02 94 1018.3
20260505210023 65 197 1.0 4.0 0.00 0.02 0.02 93 1018.2
20260505204521 65 269 0.0 2.0 0.00 0.02 0.02 93 1018.0
20260505203021 66 223 0.0 2.0 0.00 0.02 0.02 93 1017.8
20260505201517 66 331 0.0 2.0 0.00 0.02 0.02 93 1017.6
20260505200019 66 331 0.0 2.0 0.00 0.02 0.02 93 1017.5
20260505194515 66 279 1.0 4.0 0.00 0.02 0.02 93 1017.4
20260505193013 66 1 0.0 2.0 0.00 0.02 0.02 93 1017.4
20260505191512 66 178 0.0 3.0 0.00 0.02 0.02 93 1017.4
20260505190012 66 234 1.0 3.0 0.00 0.02 0.02 93 1017.4
20260505184510 66 145 0.0 2.0 0.00 0.02 0.02 93 1017.4
20260505183011 66 295 1.0 3.0 0.00 0.02 0.02 93 1017.3
20260505181508 66 306 1.0 2.0 0.00 0.02 0.02 93 1017.2
20260505180015 66 295 0.0 2.0 0.00 0.02 0.02 93 1017.1
20260505174506 66 331 1.0 2.0 0.00 0.02 0.02 93 1017.1
20260505173004 67 1 0.0 2.0 0.00 0.02 0.02 93 1017.0
20260505171502 67 293 2.0 5.0 0.00 0.02 0.02 93 1017.2
20260505170100 67 284 2.0 5.0 0.00 0.02 0.02 93 1017.5
20260505164700 68 295 1.0 6.0 0.01 0.02 0.02 93 1017.4
20260505163057 68 314 1.0 3.0 0.02 0.02 0.02 93 1017.6
20260505161557 68 286 2.0 5.0 0.02 0.02 0.02 94 1017.6
20260505153051 68 190 4.0 10.0 0.00 0.01 0.00 93 1017.9
20260505151549 68 217 1.0 4.0 0.00 0.01 0.00 93 1018.1
20260505124538 67 300 1.0 4.0 0.00 0.01 0.01 93 1018.4
20260505123038 68 306 1.0 2.0 0.00 0.01 0.01 92 1018.2
20260505121536 68 269 1.0 2.0 0.00 0.01 0.01 92 1018.5
20260505120035 68 290 0.0 3.0 0.00 0.01 0.01 92 1018.4
20260505114635 68 197 1.0 4.0 0.00 0.01 0.01 92 1018.2
20260505113039 68 279 1.0 2.0 0.00 0.01 0.01 92 1018.6
20260505111533 68 295 1.0 3.0 0.00 0.01 0.01 92 1018.5
20260505101549 69 269 0.0 2.0 0.00 0.01 0.01 89 1018.1
20260505100054 70 269 0.0 2.0 0.00 0.01 0.01 88 1017.9
20260505094532 70 178 0.0 1.0 0.00 0.01 0.01 88 1017.7
20260505093030 70 295 0.0 2.0 0.00 0.01 0.01 88 1018.0
20260505091529 70 331 1.0 2.0 0.00 0.01 0.01 87 1017.8
20260505090028 70 1 1.0 2.0 0.00 0.01 0.01 87 1017.8
20260505084528 71 335 1.0 3.0 0.00 0.01 0.01 87 1017.6
20260505083027 71 295 0.0 2.0 0.00 0.01 0.01 86 1017.1
20260505081526 72 295 1.0 3.0 0.00 0.01 0.01 84 1017.0